User: anonymous   Login
Location: Walsall
(52.5862°N, 1.9829°W)
Time: 14:33:14
(UTC+01:00)
Language:

Tiangong - Orbit

View from above orbital plane
View from above orbital plane
View from above satellite
View from above satellite

Ground track
Ground track

The orbit data is extracted from the following two-line orbital elements,

1 48274U 21035A   21212.17083322  .00008629  00000-0  96672-4 0  9999
2 48274  41.4696  14.7461 0009488 270.8390 259.1800 15.62779226 14577
Epoch (UTC): 31 July 2021 04:05:59
Eccentricity: 0.0009488
inclination: 41.4696°
perigee height: 373 km
apogee height: 386 km
right ascension of ascending node: 14.7461°
argument of perigee: 270.8390°
revolutions per day: 15.62779226
mean anomaly at epoch: 259.1800°
orbit number at epoch: 1457

The dashed part of the orbit path shows where the satellite is in the earth's shadow,  

DLR